Theta_e
353 355 355 353 354 354 355 356 356 355 355 355 356 356 356 356 355 355 356 356 357 358 358 357 357 357 357 357 357 358 360 361 360 361 362 363 362 360 361 362 361 361 360 359 359 359 359 360 360 360 360 360 358 357 355 356 357 358 358 358 358 358 357 358 357 357 357 355 353 352 351 351 351 351 351 350 349 350 350 349 350 349 348 346 346
354 355 356 354 354 354 354 354 355 355 354 355 355 355 355 356 356 355 356 356 357 357 357 357 357 357 357 357 358 359 361 362 361 360 361 363 362 360 359 361 361 361 360 361 360 359 359 360 359 359 359 358 357 355 354 353 354 356 356 356 356 355 355 356 357 357 356 356 355 353 351 350 350 350 351 352 351 352 352 351 349 346 344 344 344
355 357 358 356 355 354 354 353 354 354 354 354 354 354 355 356 356 356 356 356 356 357 356 356 357 358 358 358 359 359 361 361 359 360 362 363 362 360 359 360 361 360 359 360 359 358 358 358 357 356 355 355 356 355 353 353 353 353 353 354 354 354 353 355 356 357 357 356 355 353 350 351 351 351 351 351 352 353 353 351 348 346 345 344 342
357 359 359 359 357 354 353 352 353 354 353 352 352 353 353 354 356 356 356 355 355 356 356 356 357 359 358 358 359 359 359 359 359 359 360 361 361 360 360 360 360 360 359 358 358 357 357 357 356 354 354 355 355 354 352 351 352 353 353 353 354 355 354 355 356 357 357 356 356 355 353 354 353 351 350 350 350 351 352 352 350 348 347 345 342
358 360 360 360 359 356 354 353 352 352 352 352 352 352 352 353 355 356 355 355 354 355 356 355 357 358 358 357 358 358 358 358 359 358 358 358 360 360 360 361 360 360 360 359 358 357 356 355 355 354 355 355 354 353 351 351 352 352 351 352 352 354 355 355 355 356 357 358 357 356 356 355 353 352 352 353 351 350 350 351 349 347 348 347 343
358 358 359 360 361 359 357 355 353 352 351 351 351 352 352 352 353 355 355 355 354 354 355 355 355 357 357 357 357 358 358 358 359 359 358 358 359 359 359 359 360 360 360 359 358 357 356 355 355 355 354 354 353 352 352 353 353 351 351 352 353 353 354 354 355 356 357 357 356 356 355 353 353 353 354 354 353 350 348 348 347 347 347 348 347
358 358 358 359 360 359 358 357 356 353 352 352 351 352 352 352 353 354 355 355 355 354 354 354 354 355 357 357 356 357 358 358 359 360 359 358 358 359 359 358 358 358 358 357 356 356 355 355 355 355 355 355 354 352 352 353 353 351 352 353 353 353 352 351 351 353 353 353 352 351 350 350 351 351 350 351 353 354 352 349 347 347 348 351 353
358 357 357 357 358 357 357 357 358 356 356 355 355 353 353 352 353 354 355 355 355 354 352 352 353 354 354 355 355 356 357 358 358 359 359 358 357 357 358 357 356 356 355 355 354 354 354 353 352 353 353 354 354 353 352 352 352 352 351 352 352 353 352 350 350 352 352 351 350 349 350 350 351 351 350 350 352 354 352 348 347 349 350 353 354
354 355 356 357 357 356 357 358 360 360 360 360 359 357 355 354 353 354 355 355 355 354 352 350 351 352 352 354 354 354 355 355 356 356 357 357 356 355 355 355 355 355 354 355 354 353 354 352 351 350 350 352 353 351 350 349 350 351 353 354 354 354 354 352 352 353 353 352 351 350 350 350 350 350 348 348 348 349 349 350 351 353 353 353 353
350 350 352 354 355 356 357 360 361 361 361 362 361 360 358 356 355 355 355 355 354 354 354 353 352 351 351 353 353 353 352 352 353 354 355 355 354 354 354 354 355 355 354 355 354 353 353 351 350 350 350 351 350 347 346 347 348 350 352 354 356 357 358 357 355 353 353 353 351 349 348 348 347 346 346 347 347 346 346 348 351 354 354 355 355
351 350 350 351 352 352 354 357 359 359 360 361 360 359 359 357 356 357 356 357 356 356 355 355 353 351 350 351 351 351 350 349 352 353 353 351 351 353 354 354 354 355 354 354 354 352 351 350 350 350 351 352 351 349 348 347 347 348 349 350 351 353 356 357 358 356 355 354 352 350 350 350 350 351 351 350 348 347 349 350 353 355 356 357 358
353 352 352 352 352 351 350 352 354 355 357 358 357 358 358 357 357 356 356 357 357 357 356 355 354 352 350 349 349 349 348 347 350 352 351 350 349 350 351 352 351 352 352 353 353 352 350 349 348 348 348 352 354 356 356 352 348 347 348 349 349 350 351 353 355 357 358 359 357 356 356 356 356 356 356 355 355 355 356 356 356 357 357 357 358
352 352 352 352 352 352 351 351 351 352 354 354 355 355 355 356 356 356 355 356 357 357 357 355 354 353 351 350 350 349 347 348 350 350 350 350 349 348 349 351 351 351 351 351 352 353 353 352 352 351 349 350 354 357 359 358 355 351 348 348 348 348 349 349 350 352 355 358 359 359 359 360 360 360 359 360 361 360 359 359 358 358 357 357 357
347 348 349 350 351 351 351 350 350 350 350 351 352 353 353 354 355 355 355 356 356 357 357 356 356 355 353 353 353 351 349 350 351 351 351 351 351 350 349 351 352 351 351 352 351 353 354 356 358 357 354 354 356 358 360 361 361 360 358 356 355 354 354 354 353 353 354 355 356 358 359 360 360 361 361 361 361 361 360 359 359 358 358 358 358
341 341 342 344 346 347 348 347 348 347 348 348 349 349 351 352 353 354 354 354 355 356 356 356 357 357 356 355 355 354 353 353 353 353 352 352 352 351 351 352 353 352 352 352 352 353 355 357 359 359 358 358 358 359 361 361 361 362 363 362 362 361 360 360 359 359 358 357 357 357 358 359 359 359 359 358 358 358 357 356 356 356 357 358 358
336 336 336 337 339 340 341 342 343 344 344 345 346 347 348 349 351 352 352 352 354 355 355 355 355 356 357 357 357 357 355 355 354 353 353 353 352 352 352 353 354 353 353 352 353 356 358 359 359 359 359 360 360 359 358 356 355 358 361 363 362 361 360 360 359 358 358 357 357 357 356 355 355 354 354 354 354 354 353 351 352 353 354 356 357
332 331 331 332 332 334 335 336 338 339 340 341 341 342 344 346 349 351 352 352 354 354 354 355 355 356 357 357 357 357 356 355 354 352 352 352 351 353 355 355 356 356 356 356 356 357 358 358 358 359 359 360 359 358 355 352 353 357 360 360 360 360 359 359 358 357 357 357 356 356 355 354 353 353 353 353 354 353 351 349 350 352 353 354 356
330 329 329 329 328 330 331 332 332 334 335 336 336 337 338 340 343 347 349 351 351 352 352 353 353 354 354 352 354 355 354 352 352 352 352 352 351 353 355 356 356 357 358 357 358 359 359 357 355 355 357 357 356 355 353 351 352 356 357 356 357 358 357 357 356 356 356 356 356 355 355 354 354 355 355 355 355 355 353 351 352 353 353 354 355
329 329 330 329 329 328 329 330 330 329 329 330 330 331 333 335 338 341 344 346 347 347 348 348 348 348 347 346 349 351 350 350 351 352 352 353 353 353 355 356 357 357 357 357 356 357 356 355 354 353 354 354 353 352 351 350 351 353 354 354 354 354 354 354 355 355 354 354 355 354 354 354 355 356 357 356 356 357 356 354 355 355 354 354 354
329 328 329 330 330 329 328 329 330 330 330 330 330 328 328 330 333 336 339 340 341 342 344 345 345 345 344 345 344 343 343 344 347 349 351 352 353 354 354 355 354 354 353 352 353 353 352 352 353 353 352 351 351 351 351 351 350 349 350 351 353 353 352 351 350 349 348 350 351 351 351 352 354 355 356 355 356 357 357 356 356 356 355 356 355
328 328 328 327 328 329 329 329 330 330 331 332 331 329 327 328 330 333 336 338 338 340 342 343 343 343 342 343 341 339 339 340 341 343 346 348 350 351 352 351 350 351 350 349 349 349 347 348 349 349 349 349 348 347 345 343 342 342 341 343 343 342 341 340 340 341 344 346 347 348 349 350 351 351 353 355 356 357 357 357 357 356 355 355 356
327 327 327 326 326 327 328 328 328 329 330 331 331 331 331 332 333 334 336 338 339 340 339 338 339 340 339 340 339 337 338 339 338 337 338 339 339 340 340 340 341 343 346 346 345 345 345 346 346 346 346 345 345 343 339 335 333 333 333 333 334 335 336 337 339 342 345 346 346 347 348 348 349 350 351 353 354 355 356 356 356 356 356 355 356
325 326 326 325 325 325 325 326 326 327 329 330 331 331 332 333 334 335 336 337 338 337 333 332 332 333 333 335 335 332 329 330 331 331 331 330 328 325 324 325 325 328 334 339 341 342 341 337 335 337 338 336 334 334 331 330 330 332 333 335 338 340 342 343 344 345 345 346 345 346 347 347 349 350 350 351 352 353 353 353 353 354 355 355 356
323 323 324 324 324 323 323 324 325 325 327 328 329 330 330 331 332 334 335 336 336 335 333 332 331 330 331 332 333 330 326 324 325 325 325 325 323 320 319 319 317 318 324 332 337 338 333 325 323 327 329 327 325 326 330 333 335 337 340 342 343 344 345 346 347 347 347 347 347 347 347 347 348 349 349 350 351 351 351 352 353 354 354 355 355
322 322 322 323 323 323 322 322 322 323 324 325 327 328 329 330 330 331 332 333 334 334 334 333 332 332 331 331 332 331 328 326 324 322 322 323 323 323 322 322 322 321 322 326 329 330 327 323 323 325 328 330 333 336 340 342 340 340 342 343 343 345 347 347 346 346 346 346 345 345 345 345 346 347 348 349 350 351 352 352 352 353 353 353 355
322 321 322 322 322 323 323 322 321 321 321 322 323 324 326 328 329 329 329 330 331 331 332 332 332 332 331 331 331 331 331 330 328 326 324 323 323 322 322 322 322 322 323 325 325 324 325 325 326 328 332 336 339 341 342 342 340 339 342 342 342 345 346 343 341 341 343 342 340 340 342 343 344 346 347 348 349 350 351 351 351 351 352 352 353
322 321 322 322 322 323 322 321 321 321 320 320 321 321 322 324 326 327 328 328 329 329 329 329 329 330 330 330 331 331 332 333 332 329 327 326 325 325 325 324 324 324 327 329 330 329 327 325 326 329 332 334 336 338 340 340 340 340 340 339 338 340 340 336 336 339 339 336 335 336 338 340 342 343 344 345 346 347 347 347 348 348 350 351 353
321 321 322 322 322 322 321 320 321 321 321 321 321 320 321 322 324 324 324 324 325 327 327 327 327 326 327 328 329 330 332 332 329 325 325 324 324 325 327 328 329 329 329 328 328 328 328 328 329 332 335 336 338 339 340 339 337 335 334 333 332 334 333 331 332 335 334 332 332 334 335 337 337 336 337 339 342 344 344 344 344 346 347 349 351
321 321 321 322 322 322 322 321 321 321 321 322 322 320 319 319 322 323 321 318 318 320 322 324 324 323 325 327 326 327 330 328 324 321 322 322 321 321 323 324 325 326 326 326 325 327 330 334 336 336 337 337 337 336 334 333 332 331 330 329 329 329 330 329 330 331 329 329 332 333 333 332 332 332 333 335 337 339 340 340 342 344 345 347 349
320 320 320 321 321 321 322 321 321 321 321 322 323 322 320 317 317 319 318 316 315 315 316 318 318 319 322 325 324 323 323 322 320 320 321 322 321 321 321 320 320 323 326 327 327 329 333 335 336 335 335 334 332 331 330 330 330 330 330 329 328 328 329 329 328 327 326 328 330 330 329 330 330 332 333 333 333 333 334 336 340 342 343 344 344
318 319 319 318 319 320 321 321 321 322 322 322 322 323 323 321 318 316 315 315 316 316 316 316 316 316 318 321 323 321 319 319 319 319 320 321 320 320 321 320 320 324 328 328 328 330 333 333 333 334 333 331 331 330 330 329 329 329 329 328 328 327 327 327 326 325 325 327 327 326 327 328 329 330 330 330 331 332 333 334 336 338 340 342 342
318 318 318 317 317 318 319 319 320 320 321 321 321 321 322 323 322 320 317 316 316 316 316 316 317 317 316 318 320 320 319 318 319 319 320 321 321 320 321 320 320 323 326 327 328 330 331 331 331 332 330 329 330 329 329 329 329 328 327 327 326 325 325 326 325 325 326 326 325 325 327 328 327 328 328 328 330 331 331 332 332 333 337 339 339
317 317 318 318 318 317 318 318 318 318 319 320 320 320 321 321 322 322 321 319 317 316 316 316 316 316 316 316 317 317 317 317 318 318 319 320 320 320 321 320 320 321 323 325 327 329 329 328 328 329 328 328 328 327 327 327 326 326 326 325 324 324 325 325 325 326 326 324 324 324 326 326 325 326 326 327 328 328 329 330 330 331 333 334 333
314 313 313 315 317 317 317 317 317 317 318 318 318 319 319 319 319 320 321 321 320 319 318 317 316 316 315 315 315 316 315 316 316 317 318 319 319 320 320 320 320 321 321 323 326 327 327 327 327 327 326 326 325 325 325 325 324 324 324 324 323 323 324 324 325 325 324 323 323 324 324 324 324 325 326 326 326 327 327 327 328 329 329 330 329
313 311 310 311 314 316 316 316 316 316 316 317 317 317 318 318 318 318 319 320 320 320 320 320 319 317 316 315 316 316 315 315 315 316 317 318 319 319 320 321 322 323 324 325 326 326 325 325 325 324 324 324 323 323 323 323 322 322 322 322 322 322 322 323 323 322 322 322 322 323 323 323 323 324 324 324 325 325 326 326 326 327 327 327 328
313 313 312 312 313 314 315 315 315 315 315 315 316 316 317 317 317 318 318 318 318 318 318 319 319 317 316 316 316 316 315 315 314 314 315 316 316 317 320 322 324 325 325 325 325 324 324 324 323 323 323 322 322 321 321 321 321 321 320 320 320 320 321 321 320 320 321 322 322 322 322 323 323 323 323 323 323 324 324 324 324 324 325 325 325
311 312 313 313 313 314 314 314 314 313 312 313 314 315 316 316 316 316 317 317 316 316 316 316 317 316 317 317 317 316 315 314 314 314 314 315 316 317 319 322 323 323 323 323 323 323 323 323 323 322 322 322 321 321 321 320 320 320 319 319 319 319 319 319 318 319 320 321 321 321 321 322 322 322 322 322 322 322 323 323 323 323 323 322 322
311 310 309 308 310 312 313 313 313 312 312 313 314 314 314 315 315 315 315 315 315 315 315 315 315 315 316 317 316 314 313 313 315 316 317 317 318 318 320 321 321 322 322 322 322 322 322 322 322 322 322 322 322 321 321 320 320 319 319 319 319 318 318 318 318 318 319 318 319 319 320 320 320 320 320 320 320 321 321 321 321 321 321 321 321
310 309 306 304 307 310 311 311 312 313 313 314 314 314 313 314 314 314 314 314 314 314 314 315 314 314 315 314 314 312 312 313 315 317 317 317 317 317 317 318 319 320 321 321 321 322 322 322 322 322 322 322 322 321 321 320 320 319 319 318 318 318 317 317 317 317 317 317 317 317 317 318 318 318 318 318 319 319 319 319 319 319 319 320 320
310 310 307 306 307 308 309 310 311 312 312 312 313 313 313 313 312 313 313 313 313 313 313 313 313 313 313 312 311 310 310 311 313 315 315 315 315 315 316 316 317 318 318 319 319 320 320 321 321 322 322 322 322 321 320 320 319 319 318 318 317 317 317 316 316 316 316 316 315 315 315 316 316 317 317 317 317 317 317 317 317 318 319 319 319
310 310 309 307 306 307 308 310 310 310 310 310 310 311 311 311 311 311 311 311 311 311 311 311 312 312 311 309 308 308 308 309 311 312 312 313 313 313 314 314 315 315 316 316 317 318 318 319 319 320 321 321 321 320 320 319 318 318 317 317 316 316 316 316 315 315 315 314 314 314 314 314 315 315 315 315 315 315 315 316 317 317 318 318 318
309 309 309 308 308 308 309 310 309 308 308 308 308 309 309 309 310 310 310 310 310 310 310 310 311 311 310 308 307 306 306 308 309 310 310 310 310 311 312 312 313 313 313 314 314 314 314 314 315 316 317 317 317 317 317 317 316 316 316 316 316 315 315 315 315 314 314 313 313 313 313 313 313 313 313 313 314 314 315 315 316 316 316 317 317
307 307 307 307 307 308 308 308 307 308 307 307 307 307 307 308 308 308 308 309 308 308 309 309 309 309 309 307 306 306 306 307 307 307 307 307 308 308 309 310 311 311 311 311 310 310 311 311 312 313 313 313 313 313 313 313 313 313 313 314 314 314 314 314 313 313 313 312 312 312 312 312 312 312 312 312 313 313 314 314 314 315 315 316 316
305 305 305 306 306 306 306 306 306 307 306 306 306 306 307 307 307 307 307 307 307 307 307 307 307 307 307 306 306 305 305 305 305 305 305 305 306 306 307 308 308 309 309 309 309 309 309 309 309 310 310 310 310 310 310 310 310 310 310 311 312 312 312 312 312 312 312 311 311 311 311 310 311 311 311 311 311 312 312 313 313 313 314 314 314
304 305 305 305 306 306 306 306 306 305 305 305 305 306 306 306 306 305 305 305 305 305 305 305 305 305 305 305 304 304 304 304 303 303 303 304 304 304 305 305 306 306 307 307 307 307 307 307 307 308 308 308 308 308 308 308 308 308 309 309 309 309 309 309 310 310 310 310 310 310 310 310 310 310 310 310 310 310 311 311 312 312 312 312 313
304 304 305 305 306 305 305 305 304 304 304 304 304 304 304 304 304 304 303 303 303 303 303 303 303 303 303 303 302 302 302 302 302 302 303 303 303 303 303 304 304 304 304 305 305 305 305 306 306 306 306 306 306 306 306 306 307 307 307 307 307 307 308 308 308 309 309 309 309 309 309 309 309 309 309 308 308 308 309 309 310 310 311 311 311
303 304 304 304 304 304 303 303 303 302 302 302 302 302 302 302 302 302 301 301 301 301 301 301 301 301 301 301 301 300 300 301 301 301 301 302 302 302 303 303 303 303 303 303 303 303 304 304 304 304 305 305 305 305 305 305 306 306 306 306 306 306 306 306 306 307 307 307 307 306 306 306 306 306 307 307 307 307 307 308 308 309 309 310 310
302 303 303 303 303 302 302 302 301 301 301 301 300 300 300 300 300 300 300 300 299 299 299 299 299 299 299 299 299 299 299 299 300 300 300 301 301 302 302 302 302 301 301 301 301 302 302 302 302 303 303 303 304 304 304 304 304 304 305 305 305 304 304 304 304 303 303 303 303 303 303 303 303 304 304 305 305 306 306 307 307 308 308 309 310
302 302 301 301 301 301 301 300 300 300 300 299 299 299 299 299 299 298 298 298 298 298 298 298 298 298 298 298 298 298 298 298 299 299 299 300 300 301 301 300 300 300 300 300 300 300 300 300 300 301 301 302 302 302 302 302 303 303 303 303 303 302 302 302 301 301 301 300 300 300 300 301 301 302 303 303 304 305 305 306 306 307 307 308 309
301 301 300 300 300 300 300 299 299 299 298 298 298 298 298 298 297 297 297 297 297 297 297 297 297 297 297 297 297 297 297 297 297 298 298 298 299 299 299 299 299 299 299 299 298 298 298 299 299 299 300 300 300 300 301 301 301 301 301 301 301 300 300 300 300 300 300 299 298 297 298 298 299 300 301 301 302 303 304 304 305 306 306 307 307
300 300 299 299 299 299 298 298 298 298 297 297 297 297 297 297 297 297 296 296 296 296 296 296 296 296 296 296 296 296 296 296 296 297 297 297 297 297 297 297 297 297 297 297 297 297 297 297 298 298 298 298 299 299 299 299 299 299 299 299 299 299 299 298 298 297 297 296 295 295 295 296 297 298 299 299 300 301 302 303 303 304 305 306 306
Wind_Speed
16 16 15 15 15 15 14 14 15 15 14 14 14 13 12 12 11 10 10 10 9 9 9 9 9 9 9 9 8 7 7 7 6 6 6 6 6 6 5 5 6 5 5 5 5 5 5 5 5 5 6 6 6 6 7 6 6 6 6 5 6 6 5 7 9 10 10 10 10 11 10 10 9 8 9 10 10 10 11 12 12 12 13 13 14
17 16 15 15 15 15 15 14 14 15 15 15 15 15 14 13 12 11 11 11 10 10 10 10 10 9 9 9 8 7 7 7 7 7 7 6 7 7 6 6 7 6 6 6 6 6 6 6 7 7 7 7 7 7 7 7 7 7 6 6 7 7 6 7 9 10 11 11 11 11 11 10 10 10 10 11 12 12 13 13 13 13 13 14 14
16 16 16 16 16 15 15 15 14 15 16 16 16 16 15 14 13 13 12 11 11 11 11 10 10 10 9 9 8 9 8 8 8 7 7 7 7 7 7 6 7 7 7 7 7 7 7 7 8 8 7 7 7 8 8 7 7 7 7 8 8 8 8 8 9 10 12 12 12 12 11 11 12 12 12 12 13 14 14 14 15 15 14 15 16
15 15 15 15 15 15 15 15 15 15 16 16 16 16 16 14 13 13 13 12 12 12 11 11 10 10 10 9 9 10 10 10 10 9 8 8 8 8 8 7 7 8 8 8 7 7 8 8 8 8 8 8 8 8 8 8 8 8 8 8 8 9 8 8 8 9 11 12 12 12 12 12 13 13 12 13 14 14 14 15 16 16 16 16 17
15 15 14 14 14 15 15 15 15 15 15 16 16 16 16 15 14 13 14 13 12 12 12 12 11 11 11 10 10 11 11 10 10 10 9 9 9 9 8 8 8 8 8 9 8 9 9 9 9 9 9 9 9 9 8 8 8 8 9 9 8 8 8 9 9 9 11 12 12 12 13 13 13 12 12 13 14 14 15 16 17 17 16 16 16
16 15 14 14 14 14 14 15 15 15 15 15 15 15 15 15 14 13 13 13 13 12 12 12 12 12 11 11 11 11 11 11 11 11 10 10 9 9 9 9 9 9 10 10 10 10 10 10 10 10 10 10 10 9 8 8 8 9 9 9 9 9 10 10 10 10 11 12 13 13 13 13 13 13 12 12 14 16 17 18 17 15 14 16 17
15 15 14 14 14 14 14 15 15 15 14 14 14 14 14 15 14 14 14 14 14 13 13 13 12 12 12 11 11 11 11 11 11 11 11 10 10 10 10 10 10 10 10 11 11 11 11 11 11 11 11 11 11 10 10 9 9 9 9 9 9 10 11 11 11 11 12 13 13 14 13 13 13 14 14 14 14 15 15 16 17 15 14 15 16
14 14 14 14 14 14 13 14 14 14 13 13 13 13 13 14 14 14 14 14 15 14 14 13 12 12 12 11 11 11 11 12 12 12 12 11 11 11 10 11 11 11 11 11 12 12 12 12 12 12 12 12 11 11 10 10 10 10 10 10 10 10 11 11 11 11 12 13 13 13 14 13 13 14 14 13 13 13 13 15 17 17 16 15 15
14 13 13 13 13 12 12 11 11 11 10 11 12 13 13 13 13 13 14 14 14 14 14 14 13 13 12 12 12 12 12 12 12 12 12 11 11 11 11 11 11 11 12 12 12 13 13 13 13 13 11 11 13 14 12 11 11 11 10 9 10 10 11 11 11 11 12 13 13 13 14 14 14 14 15 14 14 15 15 16 17 17 17 17 17
18 17 17 15 13 12 11 10 9 10 10 10 11 12 13 13 13 13 13 14 14 14 14 14 14 13 12 12 12 13 13 13 13 13 12 11 10 11 11 11 11 12 12 13 13 14 14 14 14 13 13 14 16 16 15 14 13 13 13 12 11 11 11 11 12 12 12 13 14 14 15 16 16 16 17 17 17 18 17 17 17 18 18 18 18
18 19 20 18 17 15 13 12 11 10 11 10 11 12 12 12 13 13 13 13 13 13 14 14 14 14 13 14 14 14 14 14 14 14 13 12 11 11 11 12 12 13 13 14 14 15 15 15 15 14 15 16 16 14 14 14 14 13 14 14 14 13 13 13 13 13 13 14 15 16 16 18 18 19 19 20 20 20 20 19 19 19 18 17 17
16 18 18 16 17 18 18 18 15 13 12 12 12 12 11 12 13 13 13 14 13 13 14 14 15 15 14 15 15 15 14 14 14 14 13 12 11 11 12 12 13 13 13 14 14 14 15 15 15 15 14 13 13 12 12 13 14 13 13 13 14 15 16 16 15 14 14 14 16 17 17 19 20 20 20 20 20 21 21 21 20 21 21 20 19
12 14 15 14 15 15 16 17 16 14 14 14 13 12 12 12 14 14 15 15 14 14 14 15 15 15 15 15 15 15 14 13 13 12 13 13 13 13 12 12 13 14 14 14 14 14 14 14 14 15 14 12 11 11 11 12 13 14 14 15 16 17 17 17 18 17 17 16 16 17 18 19 20 21 20 19 20 21 21 21 21 21 22 22 21
4 5 6 9 12 12 13 15 15 14 14 14 14 13 13 13 13 14 14 15 15 14 14 15 15 16 15 15 15 15 14 13 12 12 13 14 15 15 15 14 14 15 15 15 15 14 14 14 13 14 14 12 11 11 11 11 11 13 14 15 16 17 17 17 17 17 17 18 19 20 20 19 20 21 19 18 18 18 19 21 21 21 23 23 23
7 7 7 5 6 7 9 11 12 13 14 15 15 15 14 14 14 13 14 15 16 16 16 15 15 15 15 15 15 14 12 13 14 14 15 16 16 16 15 14 15 16 16 15 15 15 15 14 14 14 13 12 12 12 11 10 10 11 12 14 14 15 15 15 15 16 16 17 18 20 20 20 19 20 20 19 19 20 21 21 22 23 23 24 23
12 12 12 11 10 8 7 6 6 7 10 12 11 11 11 12 11 11 14 16 16 16 16 16 15 14 13 13 13 12 11 13 15 15 16 16 15 13 13 13 14 15 16 16 15 14 12 11 12 12 10 10 12 14 14 14 12 11 12 12 13 13 14 14 15 17 18 18 19 21 22 23 23 24 24 24 25 26 25 23 21 21 21 22 22
15 15 16 15 14 13 12 11 10 9 8 7 6 6 6 8 9 10 11 12 13 13 14 12 12 12 11 11 11 11 11 14 16 16 17 17 14 12 11 12 14 15 15 14 12 11 10 9 9 7 6 8 11 13 14 13 11 11 12 12 12 13 14 13 14 17 18 19 20 23 24 24 24 24 23 22 21 21 21 20 18 18 20 20 20
13 14 15 15 15 14 12 12 11 10 9 7 6 5 4 4 6 8 9 9 8 9 9 7 4 5 7 7 7 7 9 11 13 14 15 16 15 13 12 12 13 13 12 12 11 8 7 8 7 4 4 6 9 10 11 11 10 10 13 14 15 15 16 15 15 15 16 18 20 22 23 23 23 23 22 20 18 16 17 19 17 17 20 21 21
11 12 11 12 13 13 12 11 10 9 8 8 8 7 5 2 3 5 6 7 6 4 4 4 2 1 1 2 4 5 5 5 8 10 11 12 14 12 12 12 12 10 10 10 9 7 5 5 6 6 6 8 9 10 11 11 10 10 12 14 16 16 16 15 14 15 16 18 19 21 22 22 22 21 21 21 18 16 17 18 16 16 19 21 21
10 10 10 10 11 12 11 11 10 10 9 8 8 7 5 1 3 3 2 4 4 2 3 4 3 3 3 4 4 3 2 1 2 4 6 8 10 9 8 8 8 8 9 10 10 9 5 2 3 5 7 9 10 11 12 12 12 12 11 12 14 16 16 17 19 20 20 20 20 20 20 20 18 18 18 18 17 14 14 15 15 16 18 19 20
9 9 9 9 10 10 10 9 9 9 9 8 6 6 5 3 3 4 2 2 3 5 6 7 8 9 8 6 5 5 4 3 3 2 2 2 4 5 3 1 1 2 4 7 9 8 7 3 2 6 8 10 12 13 13 13 14 14 13 13 15 18 19 21 23 22 20 18 17 17 16 16 16 15 15 15 13 12 12 12 13 15 18 19 20
8 8 8 8 9 9 9 9 8 9 9 9 7 7 6 6 6 5 4 5 7 8 10 11 11 11 9 6 4 3 2 2 1 1 2 4 4 4 5 6 7 5 3 3 6 7 7 6 10 13 14 14 15 15 14 14 15 15 15 16 17 19 20 20 19 17 14 14 14 14 14 14 14 14 13 13 12 12 13 13 14 15 17 19 21
7 7 7 7 7 8 8 8 8 8 8 8 8 9 8 7 7 6 6 7 8 9 11 12 11 10 9 7 5 3 1 1 3 3 2 1 2 5 6 7 9 9 7 5 5 6 6 9 13 15 15 14 14 14 14 13 13 14 15 15 15 15 15 14 12 11 12 13 13 14 14 14 14 13 14 14 14 14 14 15 16 16 17 18 20
5 6 6 6 6 6 6 6 6 7 7 7 8 8 8 8 8 7 7 7 7 9 10 10 8 8 8 8 7 6 5 4 2 2 2 3 4 6 7 8 9 9 7 5 4 5 7 9 12 14 13 12 12 11 10 11 12 12 11 10 10 10 10 9 9 10 12 12 13 13 13 13 13 14 14 15 16 17 16 17 17 17 17 18 20
4 4 5 5 5 5 5 5 6 5 5 5 6 6 5 6 6 6 6 6 6 7 7 7 6 6 6 6 6 6 6 5 5 4 4 5 6 7 8 8 8 6 5 4 5 8 8 8 8 10 11 10 9 7 7 10 11 10 7 6 7 7 7 7 7 9 10 11 12 13 13 13 14 14 15 16 17 17 17 17 17 17 17 18 18
4 4 4 4 4 4 4 4 5 5 4 4 5 5 4 5 5 5 5 5 5 5 4 4 3 4 4 4 4 4 3 3 3 5 6 7 7 7 7 7 6 6 5 6 7 8 8 7 7 8 8 7 6 5 6 7 8 6 5 5 6 6 5 6 8 8 10 12 12 13 13 13 14 14 15 15 15 15 15 16 17 17 17 18 18
4 4 4 4 4 4 4 4 3 4 4 3 4 4 4 4 5 5 4 4 4 4 3 3 2 2 2 2 2 2 1 0 3 6 7 8 8 8 8 8 7 6 6 6 6 7 8 8 7 7 7 7 6 6 6 6 5 5 5 5 5 5 5 6 8 8 9 11 12 12 13 13 13 14 13 13 13 13 13 15 16 17 18 19 19
5 5 4 4 4 4 4 4 3 4 4 4 4 5 5 4 5 6 6 5 4 4 3 3 3 3 3 3 3 2 1 1 3 6 7 7 7 7 7 7 6 6 6 6 7 7 8 8 8 7 7 8 8 8 7 5 4 4 4 4 5 4 4 6 7 6 8 10 11 12 12 12 12 13 13 14 13 13 13 14 15 16 17 18 19
5 5 5 5 5 4 4 4 4 4 4 4 5 6 6 5 4 5 5 5 4 3 3 3 3 4 4 3 3 3 3 4 5 7 7 6 6 6 6 6 6 6 7 8 7 7 7 7 7 7 6 7 6 6 5 4 3 3 3 4 5 5 5 7 7 8 10 11 11 11 12 12 13 13 13 14 13 13 14 14 15 15 16 16 17
6 6 6 6 6 5 5 5 5 5 4 4 4 5 5 5 4 3 4 4 4 3 3 3 3 3 3 3 3 3 3 4 6 7 7 6 6 6 6 7 7 7 7 6 5 5 6 7 7 6 5 5 5 4 4 4 4 4 4 5 5 6 7 7 8 10 12 11 11 11 12 12 13 13 13 14 14 15 15 14 14 15 15 15 16
5 5 6 6 6 6 6 5 5 5 5 4 3 2 2 3 4 4 4 4 3 3 3 3 3 3 1 1 2 3 4 4 5 6 6 6 6 5 6 6 6 5 4 4 4 6 7 7 7 5 4 5 4 4 4 5 5 6 6 7 7 7 7 8 10 12 12 11 11 12 12 12 12 12 13 14 15 15 15 14 14 14 15 15 16
4 4 4 4 4 4 4 5 5 4 4 4 3 2 2 1 1 2 4 4 3 3 3 2 3 2 1 1 1 3 4 4 5 5 5 6 6 6 6 5 4 4 3 3 5 7 7 7 7 5 5 5 5 4 5 7 7 7 8 8 8 8 7 9 11 12 11 11 12 12 11 11 12 12 13 14 14 14 14 14 14 15 14 14 15
4 4 4 3 3 3 3 3 3 4 4 4 3 3 3 3 1 1 1 1 1 2 2 3 3 3 3 1 2 3 4 5 5 5 5 5 5 6 6 5 4 4 4 5 7 8 8 7 7 6 5 6 6 6 7 7 8 9 9 9 9 8 8 9 10 10 10 11 12 12 11 11 12 13 13 13 13 14 14 14 14 14 14 14 15
4 4 3 3 3 3 3 3 3 3 3 4 4 4 3 3 4 4 3 2 1 1 2 3 3 4 4 4 3 4 5 5 6 6 6 6 5 6 6 6 6 7 7 7 8 9 8 7 7 7 6 7 7 8 8 8 9 10 10 10 9 9 9 9 9 8 10 12 12 11 11 12 13 13 13 13 13 14 14 14 14 14 14 14 15
3 3 4 3 2 2 3 3 3 3 4 4 4 4 4 4 4 4 4 4 3 3 3 3 3 3 6 6 6 6 7 7 7 7 6 7 7 6 6 7 9 9 10 10 9 9 9 8 8 8 8 8 8 8 9 9 9 9 10 10 11 11 11 10 9 9 11 12 12 11 12 13 12 12 13 13 14 14 14 14 14 14 14 15 15
2 2 2 3 3 2 3 3 3 4 4 4 5 5 4 4 4 4 4 4 5 5 5 5 5 7 9 7 5 7 11 10 8 7 7 7 7 7 8 9 9 9 9 10 10 10 10 10 10 11 10 10 10 10 10 10 10 10 11 11 12 13 13 12 12 12 12 12 12 12 13 13 12 13 13 13 13 13 14 14 14 14 14 15 16
2 2 2 2 2 2 3 3 3 4 4 4 5 5 4 4 4 4 4 4 5 5 6 6 6 8 7 4 3 8 13 12 8 6 6 7 7 8 9 10 10 9 9 10 10 11 11 11 11 11 11 11 11 11 11 11 12 12 12 12 13 13 13 14 14 13 13 14 14 14 13 13 13 13 14 14 14 14 14 14 14 15 15 16 17
1 2 2 2 2 2 2 2 3 4 4 4 4 4 4 5 4 4 4 4 4 5 7 6 6 6 6 5 6 10 12 10 6 5 5 5 6 7 8 9 9 10 10 11 11 11 12 13 13 13 13 13 12 12 11 12 13 13 13 13 14 14 14 14 15 15 15 16 16 15 15 15 14 13 14 15 15 15 15 15 15 16 16 16 16
1 2 3 2 1 1 2 3 3 3 4 4 4 4 4 5 5 5 5 5 5 6 6 6 6 6 6 6 7 8 9 9 7 6 6 6 6 8 8 9 9 10 10 11 11 12 13 13 14 14 15 14 13 13 13 14 14 13 13 14 15 15 15 15 15 15 16 17 17 17 18 17 16 15 15 16 16 16 16 16 16 17 17 17 16
2 2 2 2 1 2 2 2 3 3 3 3 4 4 4 5 5 5 5 5 6 6 6 6 7 5 3 3 5 7 9 10 8 7 6 7 7 8 8 9 10 10 11 11 12 12 13 14 14 14 15 14 13 13 14 15 15 14 14 15 16 15 15 16 16 16 17 18 18 19 19 19 18 17 16 17 18 18 18 19 18 18 17 17 17
2 2 2 2 2 2 2 3 2 2 2 3 4 5 5 5 5 6 6 6 6 7 6 7 6 4 2 4 7 9 9 10 9 7 7 8 8 8 8 9 9 10 10 11 11 12 12 12 13 13 14 13 12 12 12 13 14 15 15 16 17 17 17 17 17 18 18 19 20 20 20 20 20 19 19 19 20 21 20 20 19 18 18 18 18
2 2 3 3 3 2 2 2 1 1 2 3 4 5 5 5 6 6 7 7 7 7 7 7 7 5 4 5 8 9 9 9 9 8 8 8 8 8 9 9 9 9 10 10 11 11 12 12 12 12 12 12 11 11 12 12 13 14 16 17 18 19 19 19 19 19 20 21 21 22 22 22 21 21 21 22 22 22 22 21 20 20 20 19 19
2 2 3 3 3 3 2 2 2 2 3 3 4 5 5 6 7 7 7 7 7 7 8 8 8 7 6 7 9 9 8 8 8 8 9 9 9 9 9 9 9 10 10 10 11 11 12 12 12 12 13 12 10 10 10 11 12 13 15 17 18 19 20 21 21 21 22 22 22 23 23 23 22 22 22 22 22 22 23 23 23 22 21 20 20
2 3 3 3 3 3 2 2 2 2 3 4 5 6 6 6 7 7 7 7 7 8 8 8 8 8 9 9 9 8 7 7 8 8 9 9 9 9 9 9 9 10 10 11 12 12 12 12 12 13 13 12 12 12 12 12 13 13 14 16 17 19 19 20 21 21 22 23 24 25 24 23 22 22 22 22 22 23 23 24 24 24 23 23 22
3 3 3 3 3 3 2 1 1 2 4 5 5 5 6 6 6 6 7 8 8 8 8 8 8 9 9 9 9 8 8 9 9 9 9 9 9 9 9 9 10 10 10 11 12 12 13 13 13 14 14 14 14 14 14 13 14 15 16 16 17 19 19 19 20 21 21 22 24 25 25 24 24 24 24 24 24 24 24 24 24 25 26 26 25
3 3 3 3 3 2 2 1 2 3 4 4 5 5 6 6 6 7 7 7 8 8 8 8 9 9 9 9 9 9 9 9 9 9 9 9 10 10 10 10 10 11 11 11 11 12 13 13 14 15 16 16 15 15 15 15 16 16 16 17 18 19 19 19 19 20 20 22 23 24 24 24 25 25 25 26 26 27 27 26 26 26 26 27 28
3 3 3 3 3 3 2 2 2 3 4 5 5 6 6 6 6 7 7 7 7 8 8 8 8 8 8 9 9 9 9 10 10 10 10 10 10 11 11 11 11 11 12 12 12 12 13 13 14 14 15 16 17 17 17 17 17 17 18 18 18 18 18 18 18 18 18 19 21 21 22 24 25 25 25 27 27 28 29 29 28 27 27 27 28
3 3 3 3 3 2 2 2 2 3 4 4 5 5 6 6 6 6 6 6 7 7 7 8 8 8 8 8 9 9 9 10 10 10 11 11 11 11 11 11 12 12 13 13 13 13 13 13 14 15 15 16 16 17 17 17 17 18 18 18 17 17 17 19 20 20 19 20 22 22 23 26 27 26 26 26 26 28 29 29 29 28 28 27 28
3 3 3 3 2 2 1 1 2 2 3 4 4 5 5 5 6 6 6 6 7 7 7 7 7 8 8 8 8 9 9 10 10 10 10 10 11 11 11 11 12 12 13 13 13 14 14 15 15 15 16 16 16 16 16 16 17 17 17 17 19 20 21 22 22 23 24 26 26 25 25 27 27 27 27 27 26 27 28 29 29 29 29 30 31
4 3 3 3 2 1 1 1 2 2 3 4 4 5 5 5 5 6 6 6 7 7 7 7 7 8 8 8 8 9 9 9 10 10 11 11 11 11 11 12 11 11 12 13 14 15 16 16 16 16 16 16 16 16 16 16 16 17 18 20 22 24 25 26 27 28 30 31 29 26 24 25 26 27 27 27 27 27 28 29 28 29 30 30 31
4 3 3 3 2 1 1 1 2 3 3 4 4 4 5 5 6 6 6 7 7 7 7 7 8 8 8 8 8 9 9 10 10 11 11 11 11 11 12 12 12 13 14 15 15 15 15 15 16 16 17 17 17 17 17 17 17 18 21 24 25 26 27 28 29 29 30 31 30 27 24 24 26 27 28 28 27 27 28 29 29 30 30 30 30
Wind_Direction
205 207 210 211 212 213 214 215 217 221 221 221 220 220 220 221 219 215 212 212 212 212 213 213 209 209 211 212 212 211 210 214 213 213 221 227 237 246 241 236 245 248 247 249 251 251 252 256 260 263 265 269 273 276 277 272 267 268 268 269 274 277 282 288 290 295 300 302 302 304 309 311 308 306 306 302 301 308 310 308 308 308 307 308 309
204 206 208 212 213 214 216 217 218 221 222 221 221 221 220 220 218 216 214 213 214 215 215 212 210 209 212 212 212 213 210 214 220 222 227 231 237 241 238 235 241 246 247 248 251 250 247 250 253 253 253 255 262 269 274 277 276 275 274 275 279 282 285 289 292 295 298 301 303 304 306 307 306 307 306 304 305 308 308 308 307 305 305 306 306
200 201 204 208 212 215 219 220 219 221 222 223 222 219 218 217 216 216 218 216 214 214 216 214 208 208 214 213 211 215 214 217 225 228 229 234 239 243 242 239 240 243 247 248 249 249 249 251 253 253 253 252 257 266 273 277 280 283 283 284 286 289 292 291 290 292 296 301 303 302 303 303 302 303 303 303 304 306 307 307 307 305 304 304 305
197 197 201 205 209 214 219 221 222 222 222 223 222 220 219 217 215 216 219 218 214 211 213 214 209 207 216 219 216 219 219 219 224 227 230 232 238 242 243 242 244 246 247 250 251 251 251 253 253 254 256 257 258 262 266 268 270 274 276 278 280 283 287 286 282 284 289 294 296 297 297 296 295 296 298 299 300 302 302 303 304 305 303 304 305
193 195 199 203 207 212 216 219 222 223 224 224 223 222 221 219 216 216 219 219 217 211 209 211 211 212 218 223 222 222 222 222 224 226 230 232 234 238 241 241 243 246 248 251 252 251 251 251 252 251 250 251 254 256 260 262 266 269 271 274 276 278 279 278 276 276 278 283 288 290 289 289 290 291 291 293 296 299 299 298 299 301 301 303 305
192 196 199 201 203 208 214 218 222 224 225 227 227 224 222 221 219 217 218 219 217 214 210 209 212 215 219 222 223 223 223 223 225 228 232 234 233 236 240 241 243 245 247 248 249 249 249 248 248 248 248 249 251 254 255 256 260 265 268 270 272 273 273 272 272 271 273 278 283 286 287 289 291 291 290 290 293 297 299 298 298 298 299 303 306
194 199 200 198 198 202 210 218 224 226 226 227 229 228 225 223 221 219 218 219 219 217 213 211 212 215 218 222 223 222 222 224 226 229 234 237 238 239 241 243 246 246 247 248 249 249 248 249 247 245 246 249 252 254 254 254 257 259 263 267 269 271 273 276 276 276 278 281 284 287 290 293 293 292 292 290 287 288 294 298 299 300 300 301 303
198 202 202 200 198 200 207 216 222 226 227 226 228 229 229 227 225 223 221 221 222 222 219 216 215 216 219 223 225 225 225 227 228 230 234 238 240 242 244 246 250 252 253 252 253 252 252 252 251 248 247 248 251 254 254 255 259 262 262 264 266 269 273 278 281 282 282 284 287 290 291 291 290 290 292 292 287 286 291 295 296 298 299 298 299
208 209 206 205 203 199 202 210 212 213 217 219 222 225 227 228 228 227 225 225 225 226 226 224 222 221 222 223 227 230 230 230 230 228 228 233 239 243 246 249 252 255 258 258 258 258 257 256 255 255 252 249 252 257 258 255 257 263 266 267 268 268 271 274 277 278 279 282 285 287 288 287 288 290 293 294 293 292 293 291 289 292 296 297 297
214 216 217 216 210 201 201 206 203 202 205 209 217 224 225 226 227 227 226 227 228 228 229 230 228 227 227 227 228 230 233 234 233 230 230 235 243 248 251 255 257 259 261 262 262 261 259 259 258 258 258 257 258 259 259 256 256 259 259 259 261 264 267 268 269 271 275 279 283 286 288 289 291 293 294 295 295 294 293 291 289 290 293 294 294
212 216 219 219 215 211 210 210 208 208 208 207 213 220 223 224 224 225 225 225 226 226 227 229 231 233 234 233 231 231 233 233 232 234 239 244 248 252 255 257 257 257 258 259 259 260 260 259 258 255 254 256 260 263 263 260 257 255 255 254 253 254 257 260 263 268 272 275 280 285 288 290 291 292 293 295 296 297 297 296 292 291 292 291 292
216 216 214 211 211 215 218 219 220 220 217 213 213 214 219 223 222 222 225 225 221 221 224 227 230 233 236 236 235 235 235 233 231 235 243 247 250 255 257 256 256 256 256 256 257 259 259 260 260 259 255 251 253 260 267 267 263 260 257 255 254 253 253 254 257 262 268 274 281 284 286 288 291 291 292 296 299 300 300 296 292 290 290 288 289
221 221 218 210 208 210 213 216 217 217 218 217 213 209 209 216 221 224 227 227 221 217 221 224 226 229 233 235 236 236 237 234 231 234 242 248 254 259 259 257 257 258 257 258 258 258 259 260 261 263 263 259 255 254 255 258 262 266 266 264 264 264 263 262 260 259 261 268 274 278 281 284 287 289 291 296 299 298 297 295 293 292 290 288 288
168 188 199 204 206 205 207 210 213 217 222 224 223 219 214 214 219 224 229 230 226 221 220 220 221 224 227 230 232 235 237 237 233 235 241 247 255 261 260 257 257 258 258 259 259 259 259 259 258 259 262 263 259 254 249 248 252 259 264 266 267 270 273 275 276 274 270 268 268 272 277 279 281 285 290 293 293 293 295 297 297 295 292 289 287
89 98 110 128 163 184 196 207 212 217 223 227 231 233 231 225 222 224 231 233 231 229 228 225 224 225 226 228 231 232 233 233 232 235 240 246 254 259 259 258 258 257 256 257 259 260 259 257 257 259 262 262 257 249 245 250 257 257 257 258 261 265 270 273 276 277 276 272 269 271 277 279 280 284 289 290 289 289 291 294 295 293 290 288 285
83 88 93 95 102 116 132 145 164 188 205 213 216 216 220 220 214 216 226 231 229 229 231 232 231 231 231 232 232 231 232 233 233 234 238 242 247 251 252 254 256 258 258 257 257 257 257 256 256 259 259 257 253 250 250 258 268 271 267 265 267 269 270 272 274 276 279 281 279 279 282 283 284 285 287 287 286 287 289 289 288 287 285 285 285
86 88 87 89 92 94 102 112 117 129 146 158 161 164 180 195 194 194 207 218 220 221 225 229 234 236 235 235 233 231 236 240 239 238 241 243 241 240 242 246 250 254 255 255 254 254 251 247 249 260 266 255 252 259 267 274 280 283 280 281 285 284 282 284 285 285 288 291 292 294 295 295 295 295 294 292 292 293 289 283 281 282 283 284 285
81 84 82 84 84 83 87 98 102 108 115 112 105 111 129 162 180 180 182 189 195 204 207 201 207 221 220 226 232 226 229 240 243 243 245 244 239 234 234 239 246 248 248 247 245 243 245 250 255 262 261 258 265 274 285 294 297 293 290 290 291 290 292 295 296 294 295 296 297 301 303 303 304 303 300 301 304 300 284 275 278 284 284 283 286
69 73 76 79 80 79 80 83 82 84 87 80 73 74 75 99 174 173 176 177 166 159 178 175 131 50 152 210 235 227 225 245 253 250 248 244 238 232 231 237 245 251 259 264 259 250 253 268 283 288 272 271 284 292 294 300 301 297 297 295 292 293 296 301 304 302 298 296 297 299 299 299 299 297 296 301 304 299 285 278 278 282 282 282 285
67 67 70 73 76 77 77 75 73 73 72 70 70 72 69 114 169 141 147 192 184 142 147 154 120 94 129 163 175 168 131 65 250 242 242 237 232 226 228 241 250 253 271 298 308 308 312 285 270 295 293 285 293 297 296 299 299 298 300 296 293 296 297 296 297 298 298 297 297 297 296 295 293 289 289 295 298 296 291 283 276 278 282 284 286
73 71 70 72 75 76 74 69 67 68 66 65 69 74 70 71 93 90 85 173 175 151 141 135 122 117 125 134 131 124 106 76 70 75 100 153 189 192 186 114 37 249 269 309 321 329 359 25 292 296 300 297 300 300 297 299 302 301 301 296 292 293 293 293 295 298 301 302 300 300 301 301 300 297 296 298 300 300 297 290 283 283 284 285 288
73 73 75 76 75 76 75 71 67 65 62 61 60 62 62 61 66 80 106 125 131 132 127 123 122 121 122 121 119 137 178 218 257 297 72 86 83 80 81 72 64 67 59 357 323 318 332 323 294 289 293 298 302 300 298 303 307 307 303 299 295 294 295 298 301 303 305 305 305 307 309 309 309 309 309 308 307 306 305 301 299 296 291 288 289
79 79 79 78 78 78 77 75 73 68 64 65 62 61 64 72 79 91 108 117 117 111 106 106 113 121 126 124 114 108 128 226 259 274 290 14 32 34 44 50 50 53 54 35 358 334 320 308 300 299 301 304 306 305 306 307 309 308 306 303 302 305 307 306 302 301 303 304 306 308 309 312 315 316 316 315 314 313 310 304 300 299 296 293 291
84 85 83 81 79 78 75 73 75 74 70 70 68 65 67 73 75 79 89 102 105 102 102 105 109 117 124 126 121 112 102 87 57 0 357 18 22 21 24 28 32 36 35 18 339 306 293 295 300 303 305 304 303 306 308 304 303 305 307 311 314 317 315 307 298 301 305 307 310 312 313 316 317 315 316 316 313 310 306 300 298 298 296 295 293
79 79 81 80 76 77 78 71 68 69 71 72 71 68 68 71 68 67 77 87 90 92 103 114 121 128 131 127 123 118 103 79 55 37 28 30 29 22 21 22 19 13 359 323 292 288 290 292 296 300 302 301 301 306 304 300 303 309 317 327 325 314 310 315 320 322 318 316 318 318 314 312 312 312 315 315 311 308 307 307 307 306 302 299 296
77 69 67 70 67 70 76 74 68 68 70 74 74 68 62 67 65 62 71 84 84 80 85 99 118 132 129 120 119 116 105 78 37 20 16 18 17 14 14 15 9 356 333 309 297 298 299 299 292 288 288 288 289 289 285 286 295 307 322 333 320 303 312 337 341 330 317 313 313 310 307 307 308 309 312 312 310 311 315 318 316 312 310 309 304
78 76 69 67 62 60 62 63 66 68 66 69 77 72 63 63 64 57 52 56 64 68 70 67 67 71 78 83 94 111 136 109 14 9 5 5 6 5 4 1 358 354 337 316 305 300 296 297 293 286 282 279 269 254 249 260 280 291 302 317 309 300 321 338 331 320 314 314 312 308 307 307 308 308 308 307 306 309 314 319 317 314 315 314 309
63 72 75 72 66 63 63 60 60 66 65 61 60 58 53 54 59 55 45 39 39 37 39 48 48 35 25 25 21 351 290 331 13 4 354 354 357 359 357 354 351 344 322 304 294 287 284 285 284 276 268 262 255 245 241 248 270 278 287 311 304 295 323 337 328 322 323 322 316 311 311 311 311 312 310 306 304 305 308 310 309 309 312 313 309
48 49 53 59 59 56 57 55 48 49 63 73 69 54 41 40 57 59 43 29 22 15 17 29 31 22 17 18 14 355 347 356 353 342 335 336 343 349 350 347 342 328 313 306 300 292 284 278 272 265 259 254 252 251 248 250 263 271 293 319 309 305 330 339 333 332 331 324 317 314 315 315 315 315 313 310 309 309 309 305 302 303 306 307 305
50 44 39 38 36 32 38 47 41 31 36 53 64 54 37 32 41 51 41 26 12 357 342 338 343 350 5 20 7 334 316 321 323 320 318 317 320 330 338 340 339 325 313 312 310 296 286 276 265 260 263 266 264 263 271 280 288 292 302 313 313 317 328 332 333 334 330 323 317 318 318 316 315 315 314 313 312 312 310 306 302 302 302 302 302
56 53 49 43 32 21 22 29 30 26 26 27 30 36 35 30 25 20 19 21 24 19 3 343 335 323 309 16 2 330 305 298 303 306 302 297 301 312 319 328 335 323 310 313 308 288 277 271 265 259 263 274 275 282 295 298 298 302 306 309 314 320 325 331 337 334 327 321 321 321 318 316 317 317 315 313 311 310 311 310 307 305 302 302 303
55 51 52 52 42 30 25 20 14 11 10 10 10 2 347 356 49 31 16 5 5 10 10 2 1 356 325 214 253 304 307 303 303 303 296 289 291 297 302 310 319 311 296 286 286 281 275 272 269 263 264 272 280 292 301 302 306 311 312 311 314 318 323 332 335 330 323 322 323 320 316 317 318 316 314 313 311 311 312 313 311 308 306 306 308
59 45 36 32 26 24 23 14 4 357 349 346 350 346 337 332 331 351 7 357 345 339 328 321 331 344 341 309 276 299 310 312 314 312 305 298 293 287 284 287 296 297 289 277 277 278 277 273 270 267 270 280 288 296 300 302 307 310 310 311 315 318 322 327 326 321 320 322 319 314 314 318 318 315 314 314 313 313 313 313 312 311 310 310 310
67 50 36 23 9 1 3 356 348 344 339 335 333 326 319 326 331 321 300 264 224 219 251 273 284 303 315 315 309 311 313 312 310 308 305 302 298 287 279 282 287 282 269 263 269 273 272 271 274 276 279 284 290 296 301 303 304 305 306 309 313 316 319 320 318 318 321 320 315 312 315 317 316 314 314 315 315 314 312 312 311 311 311 309 308
76 55 40 27 6 346 349 345 335 332 329 321 319 318 312 310 309 304 301 296 287 280 269 246 243 299 323 320 314 318 318 311 303 301 300 298 299 296 288 284 281 269 250 240 250 266 272 275 280 281 280 282 285 288 291 294 297 301 304 308 311 313 315 315 317 320 320 315 313 313 313 313 313 312 312 313 313 312 311 311 311 311 310 309 308
83 68 43 26 9 354 351 344 334 328 324 315 307 303 303 302 294 286 286 284 281 289 291 270 267 302 313 311 316 328 323 313 303 298 296 294 296 297 292 284 280 275 261 251 255 266 269 272 276 278 278 280 282 282 284 287 292 296 300 304 306 308 310 313 317 319 317 313 311 311 310 308 310 311 310 309 308 306 307 308 308 308 308 307 306
59 56 40 15 359 348 338 332 326 316 303 298 298 293 289 291 290 286 286 284 278 280 282 278 282 291 290 284 336 335 322 313 307 299 299 304 301 290 280 278 281 284 281 273 270 272 271 272 275 277 278 278 278 280 283 286 289 292 295 298 301 303 306 309 311 312 313 312 310 309 309 308 309 310 308 307 305 304 304 304 305 304 304 303 302
60 34 7 353 345 334 323 314 307 300 288 277 281 290 292 290 290 288 284 283 279 274 274 274 277 277 273 283 320 326 322 322 317 285 271 286 294 282 274 275 279 280 278 276 275 275 275 275 276 277 278 278 276 278 284 288 290 293 296 297 297 298 301 303 304 306 308 308 307 308 308 307 305 306 306 305 304 304 303 303 303 302 301 301 299
206 295 335 3 11 303 314 312 292 288 292 286 282 286 287 285 285 286 283 280 279 279 280 280 278 279 283 291 304 316 324 330 325 298 274 277 284 282 278 279 280 280 280 280 280 278 277 277 278 279 278 276 272 272 278 284 288 291 294 294 295 295 297 299 301 303 304 304 304 306 306 305 303 303 303 301 301 302 303 302 301 299 297 297 296
203 250 316 357 340 269 279 296 290 287 293 295 292 288 284 281 282 283 282 283 283 283 285 284 282 291 318 316 308 316 320 318 315 308 297 290 287 284 282 280 279 280 281 282 281 282 281 281 283 286 285 278 268 265 269 275 279 283 287 289 291 292 294 295 297 300 302 302 302 302 303 303 301 300 298 298 299 300 300 298 296 293 291 291 292
199 221 241 273 292 280 257 250 262 288 297 296 294 288 280 280 282 282 282 282 280 280 281 280 281 295 331 323 318 319 312 302 300 301 296 290 286 283 281 280 279 282 284 284 286 291 296 295 293 295 296 291 281 273 273 277 279 280 283 285 287 288 289 291 293 296 299 301 300 300 301 302 302 299 296 296 296 297 295 293 292 291 290 289 290
223 234 239 247 254 259 253 243 239 255 265 271 277 280 279 279 278 278 280 281 280 280 280 279 278 282 294 314 325 325 308 292 290 294 294 293 292 287 284 281 279 280 285 288 292 302 309 309 303 299 300 301 298 291 285 283 284 285 285 286 287 288 288 289 291 294 297 298 298 298 299 300 299 296 294 294 294 293 292 291 291 291 290 289 289
235 241 243 248 247 244 245 243 242 253 259 265 271 275 276 277 276 276 276 277 278 279 279 278 277 276 282 303 321 323 306 288 286 289 290 291 292 291 289 286 282 282 285 288 292 298 302 302 297 293 293 297 300 297 291 287 288 289 288 286 287 287 288 288 290 292 294 295 296 297 298 298 296 294 293 293 293 292 291 290 289 289 288 288 289
237 238 233 230 226 220 216 223 247 268 276 275 273 271 270 272 274 275 274 275 275 276 277 278 279 280 282 292 304 307 299 290 291 291 290 291 292 291 290 289 288 288 288 288 290 294 297 298 295 292 292 292 293 293 291 289 288 289 289 288 287 286 286 287 289 290 292 293 294 295 296 294 292 291 292 292 292 291 290 289 288 288 287 287 288
219 226 223 214 209 206 201 205 250 269 271 269 268 268 268 269 270 271 273 275 276 277 278 279 282 284 285 287 292 293 292 292 292 292 290 291 292 292 292 293 294 294 293 293 293 294 295 295 293 292 291 290 289 289 289 287 286 286 287 287 287 287 287 288 288 288 289 290 291 293 293 291 289 288 290 291 292 291 290 288 288 287 286 286 286
210 217 215 206 205 209 203 210 246 262 265 266 266 266 267 267 268 270 272 274 276 279 280 280 280 282 284 285 287 289 289 291 292 292 291 292 292 292 294 295 295 296 298 298 298 298 297 295 293 292 292 292 290 289 288 287 285 284 285 285 286 287 288 289 291 291 289 288 290 292 292 290 288 287 287 288 289 289 288 287 286 285 285 284 284
190 201 207 202 204 204 195 196 233 250 255 258 262 265 267 269 269 268 268 270 273 275 277 279 279 280 281 282 285 288 289 290 291 291 293 293 292 292 295 297 298 298 299 299 299 300 299 297 296 294 293 293 292 291 290 289 287 286 285 286 287 288 288 291 297 301 299 295 295 295 293 290 289 288 286 286 287 286 285 285 285 283 283 282 281
176 188 193 191 198 200 185 184 219 242 250 256 261 264 265 267 269 268 268 270 272 274 275 276 278 280 282 283 285 286 287 289 291 292 294 295 294 295 299 302 300 299 300 300 299 299 299 300 300 298 296 295 295 294 294 292 291 289 289 288 287 288 289 292 297 300 299 296 296 296 293 289 288 287 286 285 284 283 282 282 282 281 281 280 280
170 181 179 172 180 184 165 180 230 247 255 258 260 261 262 264 267 269 270 271 274 276 278 279 281 282 284 285 287 288 288 290 291 292 294 296 296 298 301 303 302 300 300 300 300 301 301 301 300 299 299 298 298 297 296 296 294 293 291 289 288 290 292 293 294 295 295 296 297 296 292 289 287 286 284 284 282 280 279 279 279 279 279 279 280
166 168 158 149 154 151 143 189 238 246 249 255 256 258 261 263 265 268 273 277 278 280 281 282 284 287 288 288 290 292 292 293 294 295 295 296 297 298 300 303 305 303 299 297 297 299 300 299 298 298 299 299 298 297 297 297 296 294 293 292 292 292 292 291 290 289 290 292 294 295 292 288 287 285 283 281 280 279 278 277 278 278 279 279 280
156 153 144 136 134 146 180 216 234 239 244 252 256 257 263 268 270 273 276 279 280 282 284 285 286 288 289 290 292 293 294 295 296 297 296 296 298 299 301 303 303 301 297 296 296 296 297 297 297 297 297 296 296 296 296 295 295 293 292 293 294 293 292 291 291 290 291 293 296 295 292 287 285 282 281 280 280 280 279 278 277 277 278 278 278